星链-11564 (STARLINK-11564)

导读 | 星芒AI

STARLINK-11564 是 SpaceX 星链计划中的一颗低轨通信卫星,属于第6批星链卫星(Batch 6)。该卫星于2020年11月25日由猎鹰9号火箭从卡纳维拉尔角发射升空,旨在为全球提供高速互联网服务。它运行在约550公里高度的近地轨道,具备先进的相控阵天线和激光通信技术,以提升网络连接效率和稳定性。作为星链网络的重要组成部分,STARLINK-11564 有助于扩大覆盖范围,特别是在偏远和网络基础设施薄弱的地区。

基本信息
目录编号:
62913
目录名称:
STARLINK-11564
国际标识:
2025-027G
轨道中心:
EARTH
卫星名称:
星链-11564
卫星全名:
星链-11564 (STARLINK-11564)
卫星状态:
在轨 (已飞行316 天)
发射日期:
2025-02-08 UTC
国别 :
美国 (US)
星等 :
--
轨道信息
数据来源 国际轨道数据
星历时间: 2025-12-21T21:39:11+0800
8小时前
查看轨道信息
半长轴: 6735.133km
偏心率: 0.0000949
轨道倾角: 43.000°
近地点辐角 289.464°
升交点赤经 98.739°
平近点角 70.613°
近地点: 356.356km
远地点: 357.636km
周期: 91.681分钟
每日圈数: 15.70665
详细信息
固有亮度:
5
最大亮度:
2.5
卫星平台:
Starlink V1.0
覆盖范围:
全球
运营商:
太空探索技术公司
运营商所在国:
美国
制造商(研发单位):
太空探索技术公司
制造商所在国:
美国
使用方式:
暂无
卫星简介
Starlink 计划是 SpaceX 推出的全球卫星互联网项目,通过发射低轨道卫星,为全球尤其是偏远地区提供高速、低延迟的互联网服务。自 2019 年起,Starlink 已部署数千颗卫星,旨在缩小全球数字鸿沟,推动互联网普及。该项目还为军事、航空等行业提供通信支持,带来广泛经济效益。
2D轨道图
3D轨道图
轨道高度分析图
轨道倾角分析图
轨道综合分析图
查看轨道综合分析图